This is the latest recevied weather packets stored in our database for station/object NE8U. If no packets are shown the sender has not sent any weather packets the latest 1 day(s).
| Time | Temp. | Humidity | Pressure | Rain* | Wind** | Luminosity | Snow |
|---|---|---|---|---|---|---|---|
| 1777989622 | 15° C | 96% | 1013.7 hPa | 0 mm | 0 m/s | 51 W/m² | - |
| 1777989318 | 15° C | 96% | 1013.7 hPa | 0 mm | 0.45 m/s, 287° | 52 W/m² | - |
| 1777989015 | 15° C | 96% | 1013.7 hPa | 0 mm | 0.45 m/s, 260° | 47 W/m² | - |
| 1777988711 | 15° C | 96% | 1013.6 hPa | 0 mm | 0 m/s | 44 W/m² | - |
| 1777988408 | 14.44° C | 96% | 1013.5 hPa | 0 mm | 0 m/s | 45 W/m² | - |
| 1777988105 | 14.44° C | 96% | 1013.5 hPa | 0 mm | 0 m/s | 49 W/m² | - |
| 1777987800 | 14.44° C | 96% | 1013.2 hPa | 0 mm | 0 m/s | 39 W/m² | - |
| 1777987497 | 14.44° C | 96% | 1013.5 hPa | 0 mm | 0 m/s | 34 W/m² | - |
| 1777987195 | 14.44° C | 96% | 1013.5 hPa | 0 mm | 0 m/s | 26 W/m² | - |
| 1777986891 | 14.44° C | 96% | 1013.1 hPa | 0 mm | 0 m/s | 24 W/m² | - |
| 1777986589 | 14.44° C | 95% | 1013.1 hPa | 0 mm | 0 m/s | 18 W/m² | - |
| 1777986287 | 14.44° C | 95% | 1013.4 hPa | 0 mm | 0 m/s | 16 W/m² | - |
| 1777985984 | 13.89° C | 95% | 1013 hPa | 0 mm | 0 m/s | 10 W/m² | - |
| 1777985682 | 13.89° C | 95% | 1013.1 hPa | 0 mm | 0 m/s | 7 W/m² | - |
| 1777985378 | 14.44° C | 94% | 1013.1 hPa | 0 mm | 0 m/s | 6 W/m² | - |
| 1777985075 | 13.89° C | 94% | 1013 hPa | 0 mm | 0.45 m/s, 207° | 3 W/m² | - |
| 1777984771 | 13.89° C | 93% | 1013 hPa | 0 mm | 0 m/s | 1 W/m² | - |
| 1777984468 | 13.89° C | 93% | 1013 hPa | 0 mm | 0.45 m/s, 243° | 0 W/m² | - |
| 1777984163 | 13.89° C | 94% | 1012.8 hPa | 1.78 mm | 0.45 m/s, 155° | 0 W/m² | - |
| 1777983861 | 13.89° C | 95% | 1012.8 hPa | 0 mm | 0.45 m/s, 238° | 0 W/m² | - |
| 1777983558 | 13.89° C | 94% | 1012.9 hPa | 0 mm | 0 m/s | 0 W/m² | - |
| 1777983255 | 13.89° C | 94% | 1012.9 hPa | 0 mm | 0 m/s | 0 W/m² | - |
| 1777982950 | 13.89° C | 93% | 1012.9 hPa | 0 mm | 0 m/s | 0 W/m² | - |
| 1777982647 | 13.89° C | 92% | 1012.4 hPa | 0 mm | 0 m/s | 0 W/m² | - |
| 1777982346 | 13.89° C | 92% | 1012.9 hPa | 0 mm | 0.45 m/s, 271° | 0 W/m² | - |
* Rain latest hour (hover to see other rain measurements)
** Current wind speed in m/s (hover to see current wind gust speed)